Weather History for KMCK - June, 2014

Change the Weather History Date:

Friday, June 13, 2014

  Actual Average Record
Temperature  
Mean Temperature 67 °F 69 °F  
Max Temperature 82 °F 83 °F 103 °F (1952)
Min Temperature 52 °F 55 °F 42 °F (1985)
Cooling Degree Days 2    
Growing Degree Days 16 (Base 50)    
Moisture  
Dew Point 53 °F    
Average Humidity 62    
Maximum Humidity 86    
Minimum Humidity 43    
Precipitation  
Precipitation 0.00 in 0.11 in 1.14 in (1965)
Month to date precipitation 4.34 1.48  
Year to date precipitation 9.30 9.42  
Sea Level Pressure  
Sea Level Pressure 29.89 in    
Wind  
Wind Speed 13 mph (SSE)    
Max Wind Speed 30 mph    
Max Gust Speed 38 mph    
Visibility 10 miles    
Events      
T = Trace of Precipitation, MM = Missing Value Source: NWS Daily Summary

Daily Weather History Graph

Daily Weather History Graph

Search for Another Location

Airport or City:

Trip Planner

Search our weather history database for the weather conditions in past years. The results will help you decide how hot, cold, wet, or windy it might be!

Date:

Astronomy

Jun. 13, 2014 Rise Set
Actual Time 6:12 AM CDT 9:12 PM CDT
Civil Twilight 5:39 AM CDT 9:45 PM CDT
Nautical Twilight 4:57 AM CDT 10:27 PM CDT
Astronomical Twilight 4:08 AM CDT 11:16 PM CDT
Moon 9:45 PM CDT (6/13) 6:53 AM CDT (6/13)
Length of Visible Light 16h 06m
Length of Day
15h 00m
Full, 100% of the Moon is Illuminated
Jun 13
Full
Jun 19
Last Quarter
Jun 27
New
Jul 5
First Quarter
Jul 12
Full

Hourly Weather History & Observations

Time (CDT) Temp. Heat Index Dew Point Humidity Pressure Visibility Wind Dir Wind Speed Gust Speed Precip Events Conditions
12:53 AM 57.9 °F - 50.0 °F 75% 30.09 in 10.0 mi East 4.6 mph - N/A   Clear
1:53 AM 55.9 °F - 50.0 °F 80% 30.08 in 10.0 mi SE 5.8 mph - N/A   Clear
2:53 AM 55.9 °F - 48.9 °F 77% 30.06 in 10.0 mi ESE 9.2 mph - N/A   Clear
3:53 AM 54.0 °F - 48.0 °F 80% 30.05 in 10.0 mi ESE 6.9 mph - N/A   Clear
4:53 AM 53.1 °F - 48.9 °F 86% 30.03 in 10.0 mi ESE 6.9 mph - N/A   Clear
5:53 AM 52.0 °F - 48.0 °F 86% 30.04 in 10.0 mi SE 5.8 mph - N/A   Clear
6:53 AM 53.1 °F - 48.9 °F 86% 30.03 in 10.0 mi SE 6.9 mph - N/A   Clear
7:53 AM 57.0 °F - 51.1 °F 81% 30.03 in 10.0 mi SSE 10.4 mph - N/A   Clear
8:53 AM 63.0 °F - 52.0 °F 67% 30.01 in 10.0 mi SSE 16.1 mph - N/A   Clear
9:53 AM 68.0 °F - 51.8 °F 56% 30.03 in 10.0 mi South 21.9 mph 28.8 mph N/A   Clear
10:53 AM 71.1 °F - 50.0 °F 47% 29.95 in 10.0 mi South 24.2 mph 32.2 mph N/A   Clear
11:53 AM 73.4 °F - 51.8 °F 47% 29.97 in 10.0 mi South 24.2 mph 38.0 mph N/A   Clear
12:53 PM 75.0 °F - 52.0 °F 44% 29.88 in 10.0 mi SSE 26.5 mph 34.5 mph N/A   Clear
1:53 PM 78.1 °F - 54.0 °F 43% 29.85 in 10.0 mi South 23.0 mph 32.2 mph N/A   Clear
2:53 PM 79.0 °F - 55.9 °F 45% 29.82 in 10.0 mi South 24.2 mph 34.5 mph N/A   Partly Cloudy
3:53 PM 78.8 °F - 55.4 °F 44% 29.84 in 10.0 mi SSE 23.0 mph 34.5 mph N/A   Mostly Cloudy
5:53 PM 80.6 °F 80.8 °F 57.2 °F 45% 29.77 in 10.0 mi South 26.5 mph 38.0 mph N/A   Partly Cloudy
6:53 PM 81.0 °F 81.3 °F 59.0 °F 47% 29.69 in 10.0 mi SSE 20.7 mph 35.7 mph N/A   Clear
7:53 PM 80.1 °F 80.7 °F 59.0 °F 48% 29.67 in 10.0 mi SSE 21.9 mph 34.5 mph N/A   Clear
8:53 PM 77.0 °F - 59.0 °F 54% 29.65 in 10.0 mi SSE 23.0 mph 33.4 mph N/A   Clear
9:53 PM 75.0 °F - 59.0 °F 57% 29.64 in 10.0 mi SSE 29.9 mph 36.8 mph N/A   Clear
10:53 PM 73.0 °F - 59.0 °F 61% 29.65 in 10.0 mi SSE 19.6 mph 29.9 mph N/A   Clear
11:53 PM 72.0 °F - 60.1 °F 66% 29.63 in 10.0 mi SSE 23.0 mph 34.5 mph N/A   Clear